Tracking 33744 objects as of 12-Apr-2026
HD Live streaming from Space Station
objects crossing your sky now

ANSER-FLW2

Track ANSER-FLW2 now!
10-day predictions
ANSER-FLW2 is classified as:


NORAD ID: 58018
Int'l Code: 2023-155C
Perigee: 449.4 km
Apogee: 452.0 km
Inclination: 97.6 °
Period: 93.5 minutes
Semi major axis: 6821 km
RCS: Unknown
Launch date: October 9, 2023
Source: Spain (SPN)
Launch site: FRENCH GUIANA (FRGUI)

Uplink (MHz):
Downlink (MHz): 401.850
Beacon (MHz):
Mode: FM
Call sign:
Status: Unknown

Your satellite tracking list
Your tracking list is empty




NASA's NSSDC Master Catalog

Two Line Element Set (TLE):
1 58018U 23155C   26101.94153370  .00063881  00000-0  15473-2 0  9998
2 58018  97.5538 188.5154 0001928 161.5967 198.5349 15.40864749138737
Source of the keplerian elements: AFSPC